This is the latest recevied weather packets stored in our database for station/object N1IJV-10. If no packets are shown the sender has not sent any weather packets the latest 10 day(s).
| Time | Temp. | Humidity | Pressure | Rain* | Wind** | Luminosity | Snow |
|---|---|---|---|---|---|---|---|
| 1778012962 | 12.78° C | 42% | 1008.5 hPa | 0 mm | - | 144 W/m² | - |
| 1778012659 | 12.78° C | 39% | 1008.4 hPa | 0 mm | - | 130 W/m² | - |
| 1778012355 | 12.78° C | 42% | 1008.7 hPa | 0 mm | - | 126 W/m² | - |
| 1778012052 | 12.78° C | 42% | 1008.6 hPa | 0 mm | - | 124 W/m² | - |
| 1778011751 | 12.78° C | 41% | 1008.6 hPa | 0 mm | - | 119 W/m² | - |
| 1778011448 | 12.78° C | 44% | 1008.7 hPa | 0 mm | - | 125 W/m² | - |
| 1778011143 | 12.78° C | 42% | 1008.8 hPa | 0 mm | - | 138 W/m² | - |
| 1778010840 | 13.33° C | 46% | 1008.6 hPa | 0 mm | - | 137 W/m² | - |
| 1778010537 | 12.78° C | 43% | 1008.8 hPa | 0 mm | - | 136 W/m² | - |
| 1778010235 | 12.78° C | 40% | 1008.7 hPa | 0 mm | - | 134 W/m² | - |
| 1778009935 | 12.78° C | 41% | 1008.5 hPa | 0 mm | - | 143 W/m² | - |
| 1778009633 | 13.33° C | 40% | 1008.7 hPa | 0 mm | - | 149 W/m² | - |
| 1778009330 | 12.78° C | 42% | 1008.8 hPa | 0 mm | - | 166 W/m² | - |
| 1778009029 | 12.78° C | 40% | 1008.8 hPa | 0 mm | - | 185 W/m² | - |
| 1778008726 | 13.33° C | 41% | 1008.7 hPa | 0 mm | - | 207 W/m² | - |
| 1778008424 | 13.33° C | 48% | 1008.9 hPa | 0 mm | - | 252 W/m² | - |
| 1778008121 | 13.33° C | 42% | 1008.9 hPa | 0 mm | - | 224 W/m² | - |
| 1778007816 | 12.78° C | 44% | 1008.9 hPa | 0 mm | - | 227 W/m² | - |
| 1778007512 | 12.78° C | 47% | 1009 hPa | 0 mm | - | 191 W/m² | - |
| 1778007209 | 13.33° C | 44% | 1008.9 hPa | 0 mm | - | 168 W/m² | - |
| 1778006905 | 12.78° C | 46% | 1008.9 hPa | 0 mm | - | 176 W/m² | - |
| 1778006602 | 12.78° C | 44% | 1009 hPa | 0 mm | - | 173 W/m² | - |
| 1778006299 | 13.33° C | 48% | 1008.8 hPa | 0 mm | - | 190 W/m² | - |
| 1778005996 | 13.33° C | 47% | 1009.1 hPa | 0 mm | - | 203 W/m² | - |
| 1778005693 | 13.33° C | 45% | 1008.9 hPa | 0 mm | - | 220 W/m² | - |
* Rain latest hour (hover to see other rain measurements)
** Current wind speed in m/s (hover to see current wind gust speed)